Flag for Canada Weather past 2 weeks in St. John's, Newfoundland and Labrador, Canada

Now
75 °F

Scattered clouds.


Feels Like: 78 °F
Forecast: N/A
Wind: 12 mph from West

Location: St. John's

Current Time: Jul 12, 2014 at 6:23:23 PM

Latest Report: Jul 12, 2014 at 5:30 PM


Visibility: 15 mi

Pressure: 30.09 "Hg

Humidity: 57%

Dew point: 59 °F

Location of St. John'sLocation

Historic Weather in St. John's — Graph

°F

St. John's temperature yesterday

Maximum temperature yesterday: 81 °F (at 4:30 PM)
Minimum temperature yesterday: 64 °F (at 2:30 AM)
Average temperature yesterday: 71 °F

Past Weeks' High & Low Weather Summary

 TemperatureHumidityPressure
High81 °F (Jul 11, 4:30 PM)100% (Jun 27, 4:30 PM)30.24 "Hg (Jun 27, 4:30 PM)
Low39 °F (Jun 29, 5:30 AM)34% (Jun 29, 3:30 PM)29.65 "Hg (Jul 6, 5:30 PM)
Average63 °F85%30.02 "Hg
* Reported Jun 27 4:30 PM — Jul 12 4:30 PM, St. John's, Weather by CustomWeather, © 2014

Note: Actual official high and low records may vary slightly from our data, if they occured in-between our weather recording intervals... More about our weather records

Advertising

St. John's weather history for previous 24 hours

 ConditionsComfort  
Time TempWeatherWind HumidityBarometerVisibility
4:30 PM
Jul 12
75 °FScattered clouds.10 mph57%30.10 "Hg15 mi
3:30 PM73 °FBroken clouds.9 mph65%30.09 "Hg15 mi
2:30 PM72 °FBroken clouds.12 mph69%30.10 "Hg15 mi
1:30 PM68 °FPartly sunny.6 mph83%30.10 "Hg15 mi
12:30 PM64 °FLow clouds.8 mph88%30.10 "Hg15 mi
11:30 AM64 °FLow clouds.10 mph88%30.10 "Hg15 mi
10:30 AM63 °FLow clouds.10 mph94%30.09 "Hg15 mi
9:30 AM63 °FDrizzle. More clouds than sun.14 mph94%30.09 "Hg15 mi
8:30 AM63 °FLight rain. Overcast.8 mph94%30.09 "Hg15 mi
7:30 AM63 °FLight rain. Overcast.8 mph94%30.08 "Hg15 mi
6:30 AM61 °FLight rain. More clouds than sun.8 mph100%30.08 "Hg15 mi
5:30 AM61 °FLight rain. Overcast.8 mph100%30.06 "Hg15 mi
4:30 AM61 °FLight rain. Mostly cloudy.13 mph100%30.06 "Hg15 mi
3:30 AM63 °FRain. Low clouds.16 mph100%30.06 "Hg6 mi
2:30 AM66 °FLight rain. Low clouds.13 mph94%30.06 "Hg12 mi
1:30 AM68 °FLight rain. Low clouds.9 mph100%30.07 "Hg15 mi
12:30 AM68 °FLight rain. Low clouds.9 mph100%30.09 "Hg15 mi
11:30 PM
Jul 11
70 °FLow clouds.7 mph94%30.11 "Hg15 mi
10:30 PM70 °FLow clouds.8 mph94%30.13 "Hg15 mi
9:30 PM70 °FMostly cloudy.10 mph94%30.14 "Hg15 mi
8:30 PM72 °FOvercast.14 mph88%30.13 "Hg15 mi
7:30 PM73 °FBroken clouds.12 mph83%30.13 "Hg15 mi
6:30 PM75 °FBroken clouds.10 mph78%30.13 "Hg15 mi
Weather by CustomWeather, © 2014

See weather overviewHow to use our weather pages